BRU8003 UMMS-UMMS

Flight info

Callsign BRU8003
Flight time N/A
Altitude 12000
Route AGNEF RUHAL
Aircraft A333/H-SDE3GHIJ2J3J5M1RVWXY/LB2D1

Departure

Time 2026-04-29 15:20
Airport Minsk National Airport (UMMS)

Arrival

Time N/A
Airport Minsk National Airport (UMMS)
Time Latitude Longitude Altitude Speed Heading
2026-04-29 14:55 53.88106 28.04548 679 ft 0 kts 47°
2026-04-29 14:59 53.88110 28.04565 679 ft 2 kts 82°
2026-04-29 14:59 53.88101 28.04587 679 ft 3 kts 143°
2026-04-29 14:59 53.88067 28.04635 679 ft 7 kts 138°
2026-04-29 15:00 53.88026 28.04696 680 ft 7 kts 138°
2026-04-29 15:00 53.87987 28.04756 680 ft 6 kts 138°
2026-04-29 15:00 53.87961 28.04787 680 ft 4 kts 161°
2026-04-29 15:00 53.87931 28.04785 680 ft 4 kts 199°
2026-04-29 15:01 53.87908 28.04750 680 ft 6 kts 231°
2026-04-29 15:01 53.87872 28.04683 680 ft 7 kts 227°
2026-04-29 15:01 53.87836 28.04615 680 ft 7 kts 227°
2026-04-29 15:01 53.87800 28.04548 680 ft 7 kts 227°
2026-04-29 15:02 53.87764 28.04480 680 ft 7 kts 227°
2026-04-29 15:02 53.87727 28.04412 680 ft 7 kts 228°
2026-04-29 15:02 53.87695 28.04351 680 ft 4 kts 227°
2026-04-29 15:02 53.87682 28.04316 680 ft 3 kts 260°
2026-04-29 15:03 53.87688 28.04283 680 ft 3 kts 302°
2026-04-29 15:03 53.87710 28.04251 680 ft 5 kts 320°
2026-04-29 15:03 53.87725 28.04229 680 ft 0 kts 318°
2026-04-29 15:03 53.87724 28.04231 680 ft 0 kts 318°
2026-04-29 15:13 53.87730 28.04221 680 ft 0 kts 318°
2026-04-29 15:14 53.87787 28.04137 680 ft 17 kts 319°
2026-04-29 15:15 53.87884 28.03993 680 ft 21 kts 319°
2026-04-29 15:15 53.88063 28.03728 680 ft 41 kts 318°
2026-04-29 15:15 53.88282 28.03404 679 ft 36 kts 319°
2026-04-29 15:15 53.88412 28.03357 680 ft 21 kts 43°
2026-04-29 15:16 53.88546 28.03606 680 ft 35 kts 48°
2026-04-29 15:16 53.88711 28.03920 680 ft 34 kts 47°
2026-04-29 15:16 53.88855 28.04187 680 ft 27 kts 51°
2026-04-29 15:16 53.89019 28.04518 680 ft 44 kts 49°
2026-04-29 15:17 53.89174 28.04828 679 ft 22 kts 65°
2026-04-29 15:17 53.89098 28.05050 680 ft 34 kts 137°
2026-04-29 15:17 53.88859 28.05403 680 ft 49 kts 139°
2026-04-29 15:17 53.88604 28.05778 680 ft 48 kts 138°
2026-04-29 15:18 53.88341 28.06169 680 ft 51 kts 139°
2026-04-29 15:18 53.88069 28.06571 680 ft 51 kts 139°
2026-04-29 15:18 53.87951 28.06792 680 ft 16 kts 95°
2026-04-29 15:18 53.88005 28.06956 680 ft 16 kts 34°
2026-04-29 15:19 53.88098 28.06927 680 ft 0 kts 319°
2026-04-29 15:19 53.88100 28.06924 680 ft 0 kts 319°
2026-04-29 15:19 53.88121 28.06893 679 ft 22 kts 320°
2026-04-29 15:19 53.88528 28.06300 680 ft 122 kts 318°
2026-04-29 15:20 53.89359 28.05072 1087 ft 180 kts 320°
2026-04-29 15:20 53.90279 28.03735 2209 ft 172 kts 316°
2026-04-29 15:20 53.91091 28.02463 3216 ft 155 kts 319°
2026-04-29 15:20 53.91855 28.01323 3990 ft 148 kts 319°
2026-04-29 15:21 53.92618 28.00192 4638 ft 148 kts 319°
2026-04-29 15:21 53.93391 27.99050 5254 ft 149 kts 319°
2026-04-29 15:21 53.94150 27.97929 5724 ft 149 kts 319°
2026-04-29 15:21 53.94971 27.96801 5730 ft 161 kts 334°
2026-04-29 15:22 53.96020 27.96675 6426 ft 149 kts 17°
2026-04-29 15:22 53.96991 27.97184 6542 ft 143 kts 14°
2026-04-29 15:22 53.98029 27.97636 6776 ft 178 kts 14°
2026-04-29 15:22 53.99223 27.98119 7687 ft 175 kts 13°
2026-04-29 15:23 54.00407 27.98581 8416 ft 181 kts 13°
2026-04-29 15:23 54.01554 27.99018 9151 ft 183 kts 12°
2026-04-29 15:23 54.02806 27.99492 9955 ft 185 kts 12°
2026-04-29 15:23 54.04091 27.99976 10918 ft 201 kts 12°
2026-04-29 15:24 54.05370 28.00596 11829 ft 192 kts 29°
2026-04-29 15:24 54.06363 28.02275 12036 ft 223 kts 63°
2026-04-29 15:24 54.06717 28.05053 12072 ft 267 kts 92°
2026-04-29 15:24 54.06463 28.08458 12058 ft 311 kts 95°
2026-04-29 15:25 54.06368 28.12363 12028 ft 339 kts 91°
2026-04-29 15:25 54.06333 28.16375 11997 ft 338 kts 90°
2026-04-29 15:25 54.06312 28.20330 11996 ft 334 kts 90°
2026-04-29 15:25 54.06420 28.24251 11996 ft 332 kts 83°
2026-04-29 15:26 54.06665 28.28184 12002 ft 332 kts 84°
2026-04-29 15:26 54.06897 28.32047 12000 ft 332 kts 84°
2026-04-29 15:26 54.07130 28.35985 12000 ft 332 kts 84°
2026-04-29 15:26 54.07651 28.39800 11981 ft 332 kts 66°
2026-04-29 15:27 54.08818 28.43168 12008 ft 332 kts 57°
2026-04-29 15:27 54.10023 28.46486 12002 ft 332 kts 58°
2026-04-29 15:27 54.11252 28.49863 11997 ft 331 kts 56°
2026-04-29 15:27 54.12841 28.52680 11983 ft 331 kts 35°
2026-04-29 15:28 54.14912 28.54441 12006 ft 332 kts 22°
2026-04-29 15:28 54.16320 28.55503 12008 ft 332 kts 24°
2026-04-29 15:28 54.19116 28.57651 11998 ft 332 kts 24°
2026-04-29 15:28 54.21231 28.59286 12000 ft 332 kts 24°
2026-04-29 15:29 54.23344 28.60921 12000 ft 332 kts 24°
2026-04-29 15:29 54.27562 28.64191 12000 ft 332 kts 24°
2026-04-29 15:30 54.31750 28.67447 11999 ft 332 kts 25°
2026-04-29 15:30 54.33673 28.69638 11980 ft 332 kts 45°
2026-04-29 15:30 54.34946 28.72890 11992 ft 332 kts 67°
2026-04-29 15:30 54.35394 28.76701 11991 ft 332 kts 90°
2026-04-29 15:31 54.34937 28.80610 11990 ft 332 kts 112°
2026-04-29 15:31 54.33758 28.83949 12004 ft 332 kts 127°
2026-04-29 15:31 54.32290 28.87025 12002 ft 332 kts 131°
2026-04-29 15:31 54.30734 28.89942 11998 ft 332 kts 133°
2026-04-29 15:32 54.29131 28.92783 12000 ft 332 kts 134°
2026-04-29 15:32 54.27496 28.95605 12000 ft 332 kts 135°
2026-04-29 15:32 54.25880 28.98355 11999 ft 332 kts 135°
2026-04-29 15:32 54.24229 29.01146 12000 ft 332 kts 135°
2026-04-29 15:33 54.22587 29.03911 11999 ft 332 kts 135°
2026-04-29 15:33 54.20940 29.06677 12000 ft 332 kts 135°
2026-04-29 15:33 54.19297 29.09430 11999 ft 332 kts 136°
2026-04-29 15:33 54.17389 29.11725 11980 ft 332 kts 156°
2026-04-29 15:34 54.15150 29.12574 11992 ft 332 kts 178°
2026-04-29 15:34 54.12885 29.11889 11990 ft 332 kts 201°
2026-04-29 15:34 54.10961 29.09798 11991 ft 332 kts 223°
2026-04-29 15:34 54.09370 29.06940 12008 ft 332 kts 228°
2026-04-29 15:35 54.07895 29.04019 11988 ft 317 kts 230°
2026-04-29 15:35 54.06511 29.01139 11993 ft 313 kts 231°
2026-04-29 15:35 54.05157 28.98257 12000 ft 313 kts 231°
2026-04-29 15:35 54.03795 28.95327 12000 ft 313 kts 232°
2026-04-29 15:36 54.02461 28.92443 11999 ft 312 kts 232°
2026-04-29 15:36 54.01134 28.89572 11717 ft 307 kts 232°
2026-04-29 15:36 53.99808 28.86700 11150 ft 309 kts 232°
2026-04-29 15:36 53.98485 28.83835 10687 ft 308 kts 232°
2026-04-29 15:37 53.97174 28.80997 10254 ft 305 kts 232°
2026-04-29 15:37 53.95864 28.78165 9809 ft 303 kts 232°
2026-04-29 15:37 53.94551 28.75331 9366 ft 301 kts 232°
2026-04-29 15:37 53.93263 28.72553 8934 ft 299 kts 232°
2026-04-29 15:38 53.91974 28.69777 8504 ft 298 kts 232°
2026-04-29 15:38 53.90709 28.67056 8084 ft 296 kts 232°
2026-04-29 15:38 53.89450 28.64352 7637 ft 291 kts 232°
2026-04-29 15:38 53.88191 28.61648 6979 ft 294 kts 232°
2026-04-29 15:39 53.86943 28.58974 6626 ft 289 kts 232°
2026-04-29 15:39 53.85704 28.56319 6233 ft 288 kts 232°
2026-04-29 15:39 53.84449 28.53634 5972 ft 286 kts 232°
2026-04-29 15:39 53.83244 28.51057 5690 ft 276 kts 232°
2026-04-29 15:40 53.82037 28.48479 4870 ft 284 kts 232°
2026-04-29 15:40 53.80878 28.46009 4677 ft 255 kts 232°
2026-04-29 15:40 53.79805 28.43722 4342 ft 238 kts 232°
2026-04-29 15:40 53.78811 28.41606 4078 ft 223 kts 232°
2026-04-29 15:41 53.77879 28.39621 3820 ft 214 kts 232°
2026-04-29 15:41 53.76960 28.37670 3360 ft 208 kts 232°
2026-04-29 15:41 53.76068 28.35774 2773 ft 209 kts 232°
2026-04-29 15:41 53.75164 28.33855 2774 ft 206 kts 231°
2026-04-29 15:42 53.74256 28.31929 2704 ft 208 kts 231°
2026-04-29 15:42 53.73396 28.29951 2688 ft 209 kts 244°
2026-04-29 15:42 53.73115 28.27616 2698 ft 208 kts 279°
2026-04-29 15:42 53.73866 28.25545 2711 ft 208 kts 325°
2026-04-29 15:43 53.75200 28.24639 2730 ft 209 kts 342°
2026-04-29 15:43 53.76571 28.23766 2686 ft 209 kts 326°
2026-04-29 15:43 53.77671 28.22220 2695 ft 201 kts 319°
2026-04-29 15:43 53.78674 28.20764 2726 ft 183 kts 319°
2026-04-29 15:44 53.79651 28.19350 2775 ft 185 kts 319°
2026-04-29 15:44 53.80584 28.17973 2668 ft 166 kts 319°
2026-04-29 15:44 53.81395 28.16779 2747 ft 149 kts 319°
2026-04-29 15:44 53.82161 28.15651 2641 ft 144 kts 319°
2026-04-29 15:45 53.82936 28.14519 2420 ft 150 kts 319°
2026-04-29 15:45 53.83715 28.13436 2115 ft 143 kts 321°
2026-04-29 15:45 53.84477 28.12326 1673 ft 142 kts 318°
2026-04-29 15:45 53.85184 28.11231 1567 ft 131 kts 318°
2026-04-29 15:46 53.85902 28.10141 1569 ft 153 kts 318°
2026-04-29 15:46 53.86695 28.09019 1191 ft 143 kts 322°
2026-04-29 15:46 53.87437 28.07935 942 ft 141 kts 317°
2026-04-29 15:46 53.88164 28.06846 804 ft 140 kts 321°
2026-04-29 15:47 53.89035 28.05622 1445 ft 185 kts 321°
2026-04-29 15:47 53.89972 28.04213 2634 ft 172 kts 316°
2026-04-29 15:47 53.90825 28.02881 2826 ft 186 kts 318°
2026-04-29 15:47 53.91848 28.01346 3409 ft 202 kts 319°
2026-04-29 15:48 53.92929 27.99740 4222 ft 216 kts 319°
2026-04-29 15:48 53.94046 27.98087 4731 ft 220 kts 319°
2026-04-29 15:48 53.95243 27.96457 4660 ft 223 kts 332°
2026-04-29 15:48 53.96754 27.95902 4719 ft 226 kts
2026-04-29 15:49 53.98191 27.96832 4700 ft 226 kts 38°
2026-04-29 15:49 53.99102 27.98989 4709 ft 226 kts 72°
2026-04-29 15:49 53.99162 28.01618 4706 ft 226 kts 105°
2026-04-29 15:49 53.98569 28.04083 4715 ft 226 kts 109°
2026-04-29 15:50 53.98144 28.06641 4706 ft 226 kts 103°
2026-04-29 15:50 53.97805 28.09275 4702 ft 226 kts 101°
2026-04-29 15:50 53.97494 28.11869 4702 ft 226 kts 105°
2026-04-29 15:50 53.96954 28.14377 4702 ft 226 kts 104°
2026-04-29 15:51 53.96733 28.16970 4711 ft 226 kts 94°
2026-04-29 15:51 53.96651 28.19635 4690 ft 226 kts 85°
2026-04-29 15:51 53.97107 28.22195 4718 ft 226 kts 68°
2026-04-29 15:51 53.97401 28.24752 4690 ft 226 kts 95°
2026-04-29 15:52 53.96849 28.27255 4717 ft 226 kts 123°
2026-04-29 15:52 53.95789 28.29174 4707 ft 226 kts 141°
2026-04-29 15:52 53.94507 28.30721 4704 ft 225 kts 147°
2026-04-29 15:52 53.93183 28.32110 4707 ft 226 kts 149°
2026-04-29 15:53 53.91815 28.33462 4701 ft 226 kts 150°
2026-04-29 15:53 53.90458 28.34775 4705 ft 226 kts 150°
2026-04-29 15:53 53.89091 28.36084 4703 ft 226 kts 150°
2026-04-29 15:53 53.87726 28.37389 4703 ft 226 kts 150°
2026-04-29 15:54 53.86355 28.38697 4704 ft 226 kts 150°
2026-04-29 15:54 53.84985 28.40002 4703 ft 226 kts 150°
2026-04-29 15:54 53.83618 28.41304 4704 ft 226 kts 150°
2026-04-29 15:54 53.82250 28.42605 4704 ft 226 kts 150°
2026-04-29 15:55 53.80890 28.43956 4694 ft 226 kts 142°
2026-04-29 15:55 53.79810 28.45827 4701 ft 225 kts 139°
2026-04-29 15:55 53.78431 28.46892 4680 ft 210 kts 174°
2026-04-29 15:55 53.77075 28.46499 4349 ft 197 kts 210°
2026-04-29 15:56 53.76165 28.44863 3866 ft 195 kts 248°
2026-04-29 15:56 53.75997 28.42627 3390 ft 192 kts 273°
2026-04-29 15:56 53.75982 28.40394 2938 ft 189 kts 268°
2026-04-29 15:56 53.75944 28.38311 2900 ft 169 kts 267°
2026-04-29 15:57 53.75888 28.36418 2735 ft 161 kts 266°
2026-04-29 15:57 53.75825 28.34548 2696 ft 155 kts 266°
2026-04-29 15:57 53.75759 28.32737 2704 ft 155 kts 266°
2026-04-29 15:57 53.75691 28.30919 2719 ft 153 kts 266°
2026-04-29 15:58 53.75622 28.29114 2741 ft 155 kts 266°
2026-04-29 15:58 53.75554 28.27339 2683 ft 151 kts 266°
2026-04-29 15:58 53.75560 28.25579 2690 ft 148 kts 277°
2026-04-29 15:58 53.76071 28.24114 2675 ft 148 kts 321°
2026-04-29 15:59 53.76905 28.23117 2726 ft 147 kts 324°
2026-04-29 15:59 53.77732 28.22129 2687 ft 145 kts 324°
2026-04-29 15:59 53.78509 28.21047 2705 ft 144 kts 318°
2026-04-29 15:59 53.79264 28.19909 2702 ft 144 kts 319°
2026-04-29 16:00 53.80022 28.18796 2703 ft 144 kts 319°
2026-04-29 16:00 53.80775 28.17690 2694 ft 144 kts 319°
2026-04-29 16:00 53.81526 28.16588 2713 ft 144 kts 319°
2026-04-29 16:00 53.82307 28.15441 2718 ft 150 kts 319°
2026-04-29 16:01 53.83094 28.14284 2658 ft 149 kts 319°
2026-04-29 16:01 53.83878 28.13131 2698 ft 151 kts 319°
2026-04-29 16:01 53.84692 28.11968 2139 ft 159 kts 321°
2026-04-29 16:01 53.85515 28.10827 1541 ft 154 kts 318°
2026-04-29 16:02 53.86290 28.09652 1164 ft 145 kts 317°
2026-04-29 16:02 53.87038 28.08505 960 ft 146 kts 320°
2026-04-29 16:02 53.87806 28.07384 787 ft 145 kts 318°
2026-04-29 16:02 53.88581 28.06225 963 ft 165 kts 318°
2026-04-29 16:03 53.89607 28.04756 1335 ft 219 kts 320°
2026-04-29 16:03 53.91027 28.03459 1631 ft 253 kts 350°
2026-04-29 16:03 53.92796 28.03971 2293 ft 249 kts 28°
2026-04-29 16:03 53.94137 28.05276 2902 ft 233 kts 34°
2026-04-29 16:04 53.95457 28.07062 3410 ft 251 kts 46°
2026-04-29 16:04 53.96251 28.09539 4665 ft 236 kts 74°
2026-04-29 16:04 53.96309 28.12238 4623 ft 229 kts 105°
2026-04-29 16:04 53.95570 28.14468 4701 ft 213 kts 129°
2026-04-29 16:05 53.94537 28.16218 4689 ft 204 kts 139°
2026-04-29 16:05 53.93475 28.17779 4702 ft 202 kts 139°
2026-04-29 16:05 53.92414 28.19341 4703 ft 202 kts 139°
2026-04-29 16:05 53.91370 28.20877 4695 ft 200 kts 139°
2026-04-29 16:06 53.90311 28.22434 4551 ft 200 kts 139°
2026-04-29 16:06 53.89263 28.23974 4371 ft 201 kts 139°
2026-04-29 16:06 53.88214 28.25517 4215 ft 200 kts 139°
2026-04-29 16:06 53.87890 28.25992 4167 ft 200 kts 139°